Flag for Germany Weather past 2 weeks in Munich, Bavaria, Germany

59 °F

Partly sunny.

Feels Like: 57 °F
Forecast: 47 / 57 °F
Wind: 9 mph from West

Location: Oberpfaffenhofen

Current Time: Oct 7, 2015 at 2:41:22 PM

Latest Report: Oct 7, 2015 at 1:50 PM

Visibility: N/A

Pressure: 29.95 "Hg (28.14 "Hg at 526m altitude)

Humidity: 94%

Dew point: 57 °F

Location of MunichLocation

Historic Weather in Munich — Graph


Munich temperature yesterday

Maximum temperature yesterday: 72 °F (at 1:20 PM)
Minimum temperature yesterday: 52 °F (at 8:20 AM)
Average temperature yesterday: 64 °F

Past Weeks' High & Low Weather Summary

High72 °F (Oct 6, 1:20 PM)100% (Sep 24, 7:20 AM)30.48 "Hg (Sep 24, 7:20 AM)
Low36 °F (Sep 28, 7:20 AM)40% (Oct 5, 3:50 PM)29.71 "Hg (Sep 22, 5:20 PM)
Average54 °F71%30.14 "Hg
* Reported Sep 22 12:20 PM — Oct 7 12:50 PM, Munich, Weather by CustomWeather, © 2015

Note: Actual official high and low records may vary slightly from our data, if they occured in-between our weather recording intervals... More about our weather records


Munich weather history for previous 24 hours

Time TempWeatherWind HumidityBarometerVisibility
12:50 PM
Wed, Oct 7
59 °FPartly sunny.10 mph94%29.95 "HgN/A
12:20 PM57 °FPartly sunny.5 mph100%29.95 "HgN/A
11:50 AM57 °FSprinkles. Partly sunny.7 mph94%29.95 "HgN/A
11:20 AM57 °FLight rain. Partly sunny.7 mph94%29.95 "HgN/A
10:50 AM55 °FLight rain. Partly sunny.8 mph100%29.92 "HgN/A
10:20 AM55 °FLight rain. Broken clouds.8 mph100%29.92 "HgN/A
9:50 AM55 °FLight rain. Partly sunny.8 mph100%29.92 "HgN/A
9:20 AM55 °FPartly sunny.8 mph100%29.92 "HgN/A
8:50 AM55 °FLight rain. Broken clouds.9 mph94%29.89 "HgN/A
8:20 AM55 °FLight rain. Partly cloudy.10 mph94%29.89 "HgN/A
7:50 AM54 °FLight rain. Passing clouds.9 mph100%29.89 "HgN/A
7:20 AM54 °FLight rain. Partly cloudy.9 mph100%29.86 "HgN/A
6:50 AM54 °FLight rain. Partly cloudy.8 mph100%29.86 "HgN/A
8:20 PM
Tue, Oct 6
55 °FSprinkles. Passing clouds.5 mph94%29.86 "HgN/A
6:50 PM55 °FSprinkles. Partly sunny.20 mph94%29.83 "Hg4 mi
6:20 PM64 °FSprinkles. Clear.12 mph78%29.77 "HgN/A
5:50 PM66 °FSunny.2 mph68%29.74 "Hg10 mi
5:20 PM66 °FSunny.5 mph68%29.74 "Hg10 mi
4:50 PM68 °FSunny.3 mph64%29.74 "Hg10 mi
4:20 PM68 °FSunny.6 mph60%29.74 "Hg10 mi
3:50 PM68 °FSunny.9 mph60%29.74 "Hg10 mi
3:20 PM70 °FPassing clouds.7 mph60%29.74 "HgN/A
2:50 PM70 °FSunny.8 mph57%29.74 "Hg10 mi
2:20 PM70 °FPassing clouds.6 mph60%29.74 "HgN/A
Weather by CustomWeather, © 2015

See weather overviewHow to use our weather pages